Powrót do katalogu

SL-16 DEB

AktywnyLEO
NORAD 26077·DEBRIS·🇷🇺 Russia

Wystrzelony Feb 3, 2000 z Baikonur Cosmodrome

Loading…

Następne Przeloty (najbliższe 24 godziny)

TLE

ŚwieżeSource: Space-Track

Epoka: Sep 14, 2026, 05:52 UTC

1 26077U 00006G   26257.24461475  .00000081  00000-0  11459-3 0  9995
2 26077  70.9714 353.9783 0203684  21.3507   5.5283 13.73342934333226

Śledź SL-16 DEB w czasie rzeczywistym z AllMySat

Download on the App Store